KB2KRJ Weather Reports


Display with metric or nautical units.
time (UTC)temp
F
wind
direction
speed
MPH
gust
MPH
rain 1hr
in
rain 24hr
in
rain mn
in
humidity
%
barometer
mb
20260510064527 53 56 0.0 0.0 0.00 0.01 0.00 11 1011.5
20260510063025 53 56 0.0 1.0 0.00 0.01 0.00 11 1011.4
20260510061528 53 56 0.0 0.0 0.00 0.01 0.00 11 1011.1
20260510060023 53 56 0.0 2.0 0.00 0.01 0.00 11 1011.0
20260510054522 53 138 0.0 0.0 0.00 0.01 0.00 11 1010.6
20260510053021 53 138 0.0 0.0 0.00 0.01 0.00 12 1010.8
20260510051530 53 138 0.0 0.0 0.00 0.01 0.00 12 1010.8
20260510050020 53 139 0.0 0.0 0.00 0.01 0.00 13 1011.0
20260510044518 53 139 0.0 1.0 0.00 0.01 0.00 13 1010.8
20260510043022 53 138 0.0 0.0 0.00 0.01 0.00 12 1010.8
20260510041514 53 137 0.0 3.0 0.00 0.01 0.00 12 1010.6
20260510040012 53 148 1.0 5.0 0.00 0.01 0.00 12 1010.6
20260510034508 54 171 0.0 10.0 0.00 0.01 0.01 11 1010.6
20260510033003 54 101 0.0 6.0 0.00 0.01 0.01 11 1010.6
20260510031603 54 127 0.0 5.0 0.00 0.01 0.01 11 1010.8
20260510030054 54 105 0.0 1.0 0.00 0.01 0.01 11 1010.5
20260510024607 54 165 0.0 4.0 0.00 0.01 0.01 11 1010.8
20260510023046 54 131 0.0 3.0 0.00 0.01 0.01 11 1010.7
20260510021541 54 122 0.0 2.0 0.00 0.01 0.01 11 1010.5
20260510020037 54 137 0.0 5.0 0.01 0.01 0.01 11 1010.7
20260510014532 54 137 0.0 0.0 0.01 0.01 0.01 12 1010.9
20260510013028 54 137 0.0 0.0 0.01 0.01 0.01 12 1010.8
20260510011523 54 137 0.0 0.0 0.01 0.01 0.01 12 1010.6
20260510010019 54 137 0.0 3.0 0.00 0.00 0.00 12 1010.3
20260510004516 54 136 0.0 2.0 0.00 0.00 0.00 13 1010.3
20260510003011 54 135 0.0 3.0 0.00 0.00 0.00 13 1010.2
20260510001508 54 135 0.0 3.0 0.00 0.00 0.00 15 1010.0
20260510000006 54 147 0.0 2.0 0.00 0.00 0.00 15 1009.7
20260509234558 55 144 0.0 3.0 0.00 0.00 0.00 15 1009.6
20260509233054 55 157 0.0 1.0 0.00 0.00 0.00 15 1009.3
20260509231600 56 157 0.0 5.0 0.00 0.00 0.00 14 1009.3
20260509230044 56 140 0.0 4.0 0.00 0.00 0.00 13 1009.3
20260509224539 56 130 0.0 5.0 0.00 0.00 0.00 12 1009.3
20260509223043 56 123 0.0 2.0 0.00 0.00 0.00 10 1009.4
20260509221533 56 115 0.0 6.0 0.00 0.00 0.00 9 1009.6
20260509220026 56 151 0.0 2.0 0.00 0.00 0.00 8 1009.6
20260509214522 55 133 0.0 2.0 0.00 0.00 0.00 8 1009.7
20260509213018 55 132 0.0 3.0 0.00 0.00 0.00 8 1009.7
20260509211516 55 69 0.0 1.0 0.00 0.00 0.00 8 1009.6
20260509210011 55 69 0.0 4.0 0.00 0.00 0.00 8 1009.8
20260509204505 55 84 0.0 1.0 0.00 0.00 0.00 8 1010.0
20260509203005 55 84 0.0 1.0 0.00 0.00 0.00 8 1010.1
20260509201558 54 144 0.0 1.0 0.00 0.00 0.00 8 1010.2
20260509200055 54 145 0.0 3.0 0.00 0.00 0.00 8 1010.3
20260509194547 54 103 0.0 3.0 0.00 0.00 0.00 9 1010.5
20260509193044 53 153 0.0 4.0 0.00 0.00 0.00 10 1010.7
20260509191539 53 109 0.0 4.0 0.00 0.00 0.00 10 1011.0
20260509190039 53 103 1.0 7.0 0.00 0.00 0.00 10 1011.1
20260509184536 52 142 1.0 10.0 0.00 0.00 0.00 11 1011.2
20260509183026 52 148 1.0 6.0 0.00 0.00 0.00 11 1011.4
20260509181522 52 86 1.0 7.0 0.00 0.00 0.00 12 1011.3
20260509180025 52 130 0.0 5.0 0.00 0.00 0.00 12 1011.3
20260509174521 52 165 0.0 5.0 0.00 0.00 0.00 12 1011.3
20260509173049 51 158 0.0 3.0 0.00 0.00 0.00 12 1011.4
20260509171524 51 146 0.0 5.0 0.00 0.00 0.00 12 1011.8
20260509170017 51 137 0.0 4.0 0.00 0.00 0.00 12 1012.1
20260509164515 51 138 1.0 5.0 0.00 0.00 0.00 13 1012.2
20260509163016 51 178 0.0 2.0 0.00 0.00 0.00 13 1012.3
20260509161508 50 182 0.0 1.0 0.00 0.00 0.00 14 1012.5
20260509160004 49 183 0.0 0.0 0.00 0.00 0.00 16 1012.7
20260509154600 48 183 0.0 0.0 0.00 0.00 0.00 17 1013.0
20260509153100 48 183 0.0 2.0 0.00 0.00 0.00 17 1013.1
20260509151621 48 183 0.0 2.0 0.00 0.00 0.00 17 1013.1
20260509150055 47 176 0.0 4.0 0.00 0.00 0.00 19 1013.3
20260509144552 46 116 0.0 0.0 0.00 0.00 0.00 20 1013.3
20260509143058 46 116 0.0 2.0 0.00 0.00 0.00 21 1013.5
20260509141552 46 117 0.0 1.0 0.00 0.00 0.00 21 1013.5
20260509140047 45 117 0.0 1.0 0.00 0.00 0.00 22 1013.4
20260509134547 45 117 0.0 0.0 0.00 0.00 0.00 23 1013.4
20260509133045 44 117 0.0 0.0 0.00 0.00 0.00 23 1013.3
20260509131556 44 117 0.0 0.0 0.00 0.00 0.00 24 1013.3
20260509130105 44 117 0.0 0.0 0.00 0.00 0.00 24 1013.5
20260509124543 44 117 0.0 0.0 0.00 0.00 0.00 24 1013.6
20260509123113 44 117 0.0 0.0 0.00 0.00 0.00 25 1013.7
20260509121540 44 117 0.0 0.0 0.00 0.00 0.00 26 1013.8
20260509120047 43 117 0.0 0.0 0.00 0.00 0.00 26 1013.8
20260509114546 43 117 0.0 0.0 0.00 0.00 0.00 26 1013.8
20260509113036 43 117 0.0 0.0 0.00 0.00 0.00 27 1013.8
20260509111535 43 117 0.0 0.0 0.00 0.00 0.00 27 1013.8
20260509110035 43 117 0.0 0.0 0.00 0.00 0.00 28 1013.9
20260509104533 43 117 0.0 1.0 0.00 0.00 0.00 28 1014.1
20260509103031 43 117 0.0 0.0 0.00 0.00 0.00 29 1014.0
20260509101540 42 117 0.0 0.0 0.00 0.00 0.00 30 1013.7
20260509100029 42 117 0.0 0.0 0.00 0.00 0.00 31 1014.1
20260509094532 42 117 0.0 0.0 0.00 0.00 0.00 32 1014.0
20260509093028 42 117 0.0 0.0 0.00 0.00 0.00 33 1014.1
20260509091531 42 117 0.0 0.0 0.00 0.00 0.00 33 1014.0
20260509090027 42 117 0.0 0.0 0.00 0.00 0.00 34 1013.7
20260509084528 42 117 0.0 0.0 0.00 0.00 0.00 36 1013.9
20260509083023 42 117 0.0 0.0 0.00 0.00 0.00 37 1014.3
20260509081522 41 117 0.0 1.0 0.00 0.00 0.00 40 1014.2
20260509080021 41 117 0.0 0.0 0.00 0.00 0.00 42 1014.4
20260509074520 41 117 0.0 0.0 0.00 0.00 0.00 43 1014.1
20260509073020 41 117 0.0 0.0 0.00 0.00 0.00 43 1013.8
20260509071516 41 116 0.0 0.0 0.00 0.00 0.00 44 1013.6
20260509070015 40 116 0.0 0.0 0.00 0.00 0.00 45 1013.6